Regional Weather Roundup
Issued by NWS

Home | Current Version | Previous Version | Text Only | Print | Product List | Glossary Off
Versions: 1 2 3 4 5 6 7 8 9 10 11 12 13 14 15 16 17 18 19 20 21 22 23 24 25 26 27 28 29 30 31 32 33 34 35 36 37 38 39 40 41 42 43 44 45 46 47 48 49 50

000
ASUS43 KLOT 282210
RWRIL

ILLINOIS REGIONAL WEATHER ROUNDUP
NATIONAL WEATHER SERVICE CHICAGO/ROMEOVILLE IL
400 PM CST SUN DEC 28 2014

NOTE: "FAIR" INDICATES FEW OR NO CLOUDS BELOW 12,000 FEET WITH NO
SIGNIFICANT WEATHER AND/OR OBSTRUCTIONS TO VISIBILITY.

* THESE STATIONS ARE NOT UNDER NWS QUALITY CONTROL. THEY ALSO MAY NOT
  REPORT WEATHER SUCH AS PRECIPITATION OR FOG.

ILZ001-002-007-009-015-016-024-282300-
NORTHWEST ILLINOIS

CITY           SKY/WX    TMP DP  RH WIND       PRES   REMARKS
MOLINE         CLEAR     36  17  46 CALM      30.17R
STERLING*      CLEAR     34  14  44 NW5       30.18S WCI  30
SAVANNA*       CLEAR     33  17  51 W3        30.18S
$$

ILZ003-004-008-010-011-017-018-282300-
NORTH CENTRAL ILLINOIS

CITY           SKY/WX    TMP DP  RH WIND       PRES   REMARKS
ROCKFORD       CLEAR     33  16  49 W7        30.19R WCI  27
FREEPORT*      CLEAR     30  18  59 SW5       30.18S WCI  26
ROCHELLE*      CLEAR     31  19  58 W6        30.18R WCI  26
DE KALB*       CLEAR     31  17  56 W7        30.17R WCI  24
PERU*          CLEAR     34  16  46 CALM      30.19S
$$

ILZ005-006-012>014-019>023-282300-
NORTHEAST ILLINOIS

CITY           SKY/WX    TMP DP  RH WIND       PRES   REMARKS
CHICAGO-OHARE  PTCLDY    34  13  41 W9        30.16R WCI  27
CHICAGO-MIDWAY PTCLDY    34  17  50 SW7       30.18R WCI  28
AURORA         CLEAR     33  18  53 W8        30.18R WCI  26
LANSING*       CLEAR     32  17  55 SW5       30.19R WCI  27
JOLIET*        CLEAR     32  16  52 W5        30.19S WCI  27
WAUKEGAN       CLEAR     33  15  47 W3        30.16R
DUPAGE AIRPORT CLEAR     33  16  49 W7        30.16S WCI  27
KANKAKEE*      CLEAR     31  20  64 W6        30.21R WCI  25
WHEELING       CLEAR     34  14  43 W9        30.18R WCI  27
MORRIS*        CLEAR     32  20  61 W5        30.18S WCI  28
ROMEOVILLE*    CLEAR     32  18  55 W5        30.18S WCI  27
NORTHERLY ISL    N/A     35  12  38 W7          N/A  WCI  29
$$

LMZ740>746-282300-
SOUTHERN LAKE MICHIGAN

STATION/POSITION SKY/WX   TEMP    WIND        PRES    VSBY  WAVE
                          AIR SEA DIR/SP/G                  HT/PER
                          (F)     (DEG/KT/KT) (MB)    (MI)  (FT/S)
WAUKEGAN HARBOR            35     310/  9/ 13   N/A
HARRISON CRIB              35     280/ 11/ 13   N/A
BURNHAM HARBOR             35     260/  5/ 10   N/A
CALUMET HARBOR             34     210/  6/ 10 1020.8R
MICHIGAN CITY              32     230/ 10/ 11   N/A
$$

ILZ025>027-034>036-040-047-049-050-058-095>099-282300-
WEST-CENTRAL ILLINOIS

CITY           SKY/WX    TMP DP  RH WIND       PRES   REMARKS
QUINCY         CLEAR     35  19  52 SW5       30.18R WCI  31
GALESBURG*     CLEAR     33  19  54 CALM      30.17F
MACOMB*        CLEAR     36  24  62 CALM      30.20S
JACKSONVILLE*  CLEAR     36  23  60 CALM      30.19F
PITTSFIELD*    CLEAR     36  25  65 CALM      30.19R
$$

ILZ028>032-037-038-041>044-048-051>054-059>061-282300-
CENTRAL ILLINOIS

CITY           SKY/WX    TMP DP  RH WIND       PRES   REMARKS
PONTIAC        CLEAR     32  17  53 CALM      30.20S
BLOOMINGTON    CLEAR     32  20  61 CALM      30.20R
DECATUR        CLEAR     32  22  66 N3        30.21R
PEORIA         CLEAR     35  17  47 CALM      30.20R
LACON*         CLEAR     33  18  54 CALM      30.19S
LINCOLN*       CLEAR     34  23  64 CALM      30.22R
SPRINGFIELD    CLEAR     34  23  64 CALM      30.20S
TAYLORVILLE    PTCLDY    32  25  74 CALM      30.20F
$$

ILZ033-039-045-046-055>057-062-063-282300-
EAST-CENTRAL ILLINOIS

CITY           SKY/WX    TMP DP  RH WIND       PRES   REMARKS
CHAMPAIGN      CLEAR     31  21  66 NW5       30.20S WCI  26
DANVILLE*      PTCLDY    29  22  77 N3        30.18S
RANTOUL*       CLEAR     33  20  60 NW3       30.20S
MATTOON        PTCLDY    31  22  69 NW8       30.20R WCI  23
PARIS*         MOCLDY    31  25  78 CALM      30.21S
$$

ILZ079-100>102-282300-
SOUTHWEST ILLINOIS

CITY           SKY/WX    TMP DP  RH WIND       PRES   REMARKS
BELLEVILLE     MOCLDY    35  27  71 N2        30.21S
CAHOKIA*       CLEAR     37  25  61 CALM      30.22R
SPARTA*        CLOUDY    33  27  80 N3        30.22S
$$

ILZ064>066-069>071-074>076-080>082-084>086-088>090-092>094-282300-
SOUTH-CENTRAL ILLINOIS

CITY           SKY/WX    TMP DP  RH WIND       PRES   REMARKS
CARBONDALE     CLOUDY    34  26  72 N6        30.21S WCI  29
CAIRO*         CLOUDY    38  30  75 N7        30.21S WCI  32
EFFINGHAM*     MOCLDY    32  22  68 CALM      30.23R
MT. VERNON     CLOUDY    34  25  69 CALM      30.22S
CENTRALIA*     CLOUDY    32  26  77 NW6       30.22R WCI  27
SALEM*         CLOUDY    34  28  76 N8        30.23R WCI  28
METROPOLIS*    CLOUDY    36  33  90 N5        30.20S WCI  32
$$

ILZ067-068-072-073-078-083-087-091-282300-
SOUTHEAST ILLINOIS

CITY           SKY/WX    TMP DP  RH WIND       PRES   REMARKS
LAWRENCEVILLE  CLOUDY    33  26  75 N7        30.23R WCI  27
FLORA*         CLOUDY    33  26  77 NW5       30.23R WCI  28
FAIRFIELD*     CLOUDY    33  27  78 NW5       30.21S WCI  29
HARRISBURG*    CLOUDY    33  29  85 N6        30.22F WCI  28
ROBINSON*      CLOUDY    31  24  72 N6        30.24R WCI  26
CARMI*         CLOUDY    35  32  89 N7        30.22R WCI  29
$$

ABBREVIATIONS USED IN REMARKS
   TC - TEMPERATURE IN CELSIUS
  WCI - WIND CHILL INDEX
   HX - HEAT INDEX
  VSB - VISIBILITY
$$




USA.gov is the U.S. government's official web portal to all federal, state and local government web resources and services.